Find Local Weather

World > North America > United States > Florida

Miami, Florida Regional Weather

Lat: 25.77N, Lon: 80.2W
Wx Zone: FLZ074
Warning FLW WEATHER ALERT - (More Info. Click Here) Warning
Feedback
Expires:201808161600;;154427
ASUS42 KTBW 161517
RWRFL 
FLORIDA REGIONAL WEATHER ROUNDUP
NATIONAL WEATHER SERVICE TAMPA BAY RUSKIN FL
1100 AM EDT THU AUG 16 2018

NOTE: "FAIR" INDICATES FEW OR NO CLOUDS BELOW 12,000 FEET WITH NO
SIGNIFICANT WEATHER AND/OR OBSTRUCTIONS TO VISIBILITY.


FLZ067-068-071>074-168-172>174-161600-
SOUTHEAST FLORIDA 
  
CITY           SKY/WX    TMP DP  RH WIND       PRES   REMARKS
W PALM BEACH   FAIR      87  76  69 SE16G22   30.17R HX  97           
FT LAUDER-EXEC FAIR      89  77  67 SE15      30.16R HX 101           
FT LAUDERDALE  FAIR      88  77  69 SE15G24   30.15R HX 100           
POMPANO BEACH  FAIR      88  76  67 E12       30.16R HX  99           
PEMBROKE PINES FAIR      89  74  60 SE14      30.17R HX  98           
OPA LOCKA      FAIR      89  75  63 SE14      30.16R HX  99           
MIAMI          FAIR      86  76  71 SE15      30.16R HX  96           
WEST KENDALL   FAIR      90  74  59 SE14      30.15R HX  99           
HOMESTEAD      FAIR      88  74  63 E13       30.15R HX  97           

STATION/POSITION SKY/WX   TEMP    WIND        PRES    WAVE   SWELL
                          AIR SEA DIR/SP/G            HT/PER HT/PER
                          (F)     (DEG/KT/KT) (MB)    (FT/S) (FT/S)
PORT EVERGLADES            85     130/  8/ 11 1021.1
VIRGINIA KEY               86 88   90/ 10/ 12 1021.0R
LAKE WORTH                 84 84  120/ 13/ 15 1022.6R
FOWEY ROCKS                84 85  120/ 13/ 15 1021.7R
SETTLEMENT POINT           85     100/ 13/ 16 1022.0R

$$

  

SKY/WX - Weather  TMP - Temperature  DP - Dewpoint  RH - Relative Humidity
WIND - Wind Direction/Speed PRES - Barometric Pressure